DW5129 Weather Reports


Display with metric or nautical units.
time (UTC)temp
F
wind
direction
speed
MPH
gust
MPH
rain 1hr
in
rain 24hr
in
rain mn
in
humidity
%
barometer
mb
20260510192036 75 355 3.0 9.0 0.00 0.00 0.00 62 1013.7
20260510191535 75 334 0.0 4.0 0.00 0.00 0.00 64 1013.6
20260510191037 74 5 1.0 5.0 0.00 0.00 0.00 62 1013.6
20260510190535 74 332 1.0 8.0 0.00 0.00 0.00 61 1013.5
20260510190037 74 325 1.0 8.0 0.00 0.00 0.00 62 1013.5
20260510185534 74 322 2.0 6.0 0.00 0.00 0.00 60 1013.5
20260510185034 74 348 0.0 9.0 0.00 0.00 0.00 62 1013.4
20260510184535 74 326 1.0 8.0 0.00 0.00 0.00 59 1013.4
20260510184033 75 322 2.0 13.0 0.00 0.00 0.00 58 1013.5
20260510183533 76 348 4.0 13.0 0.00 0.00 0.00 58 1013.5
20260510183037 75 15 1.0 8.0 0.00 0.00 0.00 61 1013.6
20260510182533 74 306 1.0 5.0 0.00 0.00 0.00 60 1013.5
20260510182032 75 323 2.0 6.0 0.00 0.00 0.00 58 1013.5
20260510181540 76 313 2.0 6.0 0.00 0.00 0.00 56 1013.4
20260510181031 77 228 0.0 5.0 0.00 0.00 0.00 64 1013.4
20260510180531 76 347 1.0 11.0 0.00 0.00 0.00 58 1013.4
20260510180028 76 20 2.0 11.0 0.00 0.00 0.00 58 1013.4
20260510175528 75 360 3.0 9.0 0.00 0.00 0.00 59 1013.4
20260510175026 74 328 0.0 8.0 0.00 0.00 0.00 60 1013.4
20260510174525 74 18 1.0 8.0 0.00 0.00 0.00 60 1013.4
20260510174024 74 32 1.0 6.0 0.00 0.00 0.00 61 1013.4
20260510173522 73 301 0.0 5.0 0.00 0.00 0.00 63 1013.6
20260510173024 73 327 0.0 3.0 0.00 0.00 0.00 63 1013.7
20260510172520 73 332 0.0 5.0 0.00 0.00 0.00 59 1013.7
20260510172020 73 325 2.0 10.0 0.00 0.00 0.00 63 1013.6
20260510171522 72 360 3.0 10.0 0.00 0.00 0.00 64 1013.7
20260510171019 72 327 3.0 9.0 0.00 0.00 0.00 60 1013.7
20260510170519 72 341 2.0 6.0 0.00 0.00 0.00 63 1013.6
20260510170021 71 344 0.0 3.0 0.00 0.00 0.00 63 1013.6
20260510165520 71 15 0.0 3.0 0.00 0.00 0.00 62 1013.8
20260510165021 71 348 0.0 3.0 0.00 0.00 0.00 63 1013.7
20260510164525 71 350 0.0 6.0 0.00 0.00 0.00 63 1013.6
20260510164018 71 329 2.0 12.0 0.00 0.00 0.00 61 1013.6
20260510163518 72 337 5.0 12.0 0.00 0.00 0.00 60 1013.6
20260510163020 73 349 1.0 9.0 0.00 0.00 0.00 65 1013.6
20260510162518 73 317 3.0 9.0 0.00 0.00 0.00 59 1013.6
20260510162018 73 346 0.0 6.0 0.00 0.00 0.00 59 1013.5
20260510161516 73 319 1.0 6.0 0.00 0.00 0.00 65 1013.4
20260510161017 72 300 0.0 5.0 0.00 0.00 0.00 61 1013.6
20260510160516 72 304 0.0 5.0 0.00 0.00 0.00 61 1013.6
20260510160014 71 268 0.0 1.0 0.00 0.00 0.00 63 1013.6
20260510155517 71 272 0.0 0.0 0.00 0.00 0.00 65 1013.6
20260510155014 71 267 0.0 3.0 0.00 0.00 0.00 61 1013.5
20260510154513 71 266 0.0 4.0 0.00 0.00 0.00 62 1013.5
20260510154014 71 341 0.0 4.0 0.00 0.00 0.00 62 1013.5
20260510153514 71 355 0.0 4.0 0.00 0.00 0.00 62 1013.6
20260510153013 71 280 0.0 1.0 0.00 0.00 0.00 61 1013.5
20260510152513 71 286 0.0 4.0 0.00 0.00 0.00 61 1013.5
20260510152013 72 293 0.0 5.0 0.00 0.00 0.00 61 1013.4
20260510151512 73 301 0.0 3.0 0.00 0.00 0.00 60 1013.2
20260510151014 73 185 0.0 3.0 0.00 0.00 0.00 60 1013.1
20260510150512 72 270 0.0 5.0 0.00 0.00 0.00 61 1012.9
20260510150012 72 238 1.0 6.0 0.00 0.00 0.00 60 1012.9
20260510145511 72 325 1.0 6.0 0.00 0.00 0.00 61 1013.1
20260510145010 73 247 0.0 4.0 0.00 0.00 0.00 64 1013.3
20260510144515 73 292 0.0 5.0 0.00 0.00 0.00 62 1013.4
20260510144009 72 293 1.0 5.0 0.00 0.00 0.00 64 1013.3
20260510143508 71 293 0.0 7.0 0.00 0.00 0.00 64 1013.2
20260510143009 71 191 0.0 7.0 0.00 0.00 0.00 61 1013.1
20260510142507 71 183 0.0 8.0 0.00 0.00 0.00 64 1013.2
20260510142007 71 121 1.0 6.0 0.00 0.00 0.00 64 1013.2
20260510141506 70 150 0.0 9.0 0.00 0.00 0.00 64 1013.3
20260510141007 70 78 2.0 9.0 0.00 0.00 0.00 62 1013.4
20260510140503 69 160 0.0 5.0 0.00 0.00 0.00 67 1013.5
20260510140002 69 151 0.0 5.0 0.00 0.00 0.00 69 1013.6
20260510135502 67 300 0.0 2.0 0.00 0.00 0.00 72 1013.6
20260510135100 67 300 0.0 2.0 0.00 0.00 0.00 69 1013.5
20260510134601 67 345 0.0 3.0 0.00 0.00 0.00 69 1013.6
20260510134100 68 360 0.0 4.0 0.00 0.00 0.00 68 1013.6
20260510133559 68 229 0.0 4.0 0.00 0.00 0.00 69 1013.6
20260510133059 67 78 0.0 3.0 0.00 0.00 0.00 74 1013.3
20260510132558 67 78 0.0 3.0 0.00 0.00 0.00 72 1013.6
20260510132057 67 135 0.0 1.0 0.00 0.00 0.00 75 1013.5
20260510131559 65 136 0.0 1.0 0.00 0.00 0.00 77 1013.5
20260510131054 65 140 0.0 1.0 0.00 0.00 0.00 80 1013.4
20260510130553 64 140 0.0 0.0 0.00 0.00 0.00 83 1013.3
20260510130051 63 141 0.0 1.0 0.00 0.00 0.00 83 1013.3
20260510125549 62 141 0.0 1.0 0.00 0.00 0.00 83 1013.4
20260510125048 62 142 0.0 1.0 0.00 0.00 0.00 84 1013.6
20260510124555 61 142 0.0 1.0 0.00 0.00 0.00 87 1013.5
20260510124046 61 142 0.0 0.0 0.00 0.00 0.00 87 1013.4
20260510123545 60 142 0.0 0.0 0.00 0.00 0.00 90 1013.2
20260510123043 59 142 0.0 0.0 0.00 0.00 0.00 90 1013.2
20260510122542 58 142 0.0 0.0 0.00 0.00 0.00 90 1013.5
20260510122041 59 143 0.0 0.0 0.00 0.00 0.00 92 1013.1
20260510121540 58 146 0.0 0.0 0.00 0.00 0.00 94 1013.4
20260510121039 57 146 0.0 0.0 0.00 0.00 0.00 95 1013.3
20260510120537 56 146 0.0 0.0 0.00 0.00 0.00 96 1013.3
20260510120035 56 146 0.0 0.0 0.00 0.00 0.00 96 1013.0
20260510115534 55 146 0.0 0.0 0.00 0.00 0.00 96 1013.1
20260510115034 55 146 0.0 0.0 0.00 0.00 0.00 96 1013.1
20260510114531 54 146 0.0 0.0 0.00 0.00 0.00 96 1012.8
20260510114029 53 146 0.0 0.0 0.00 0.00 0.00 97 1012.7
20260510113528 53 146 0.0 0.0 0.00 0.00 0.00 97 1012.7
20260510113028 52 146 0.0 0.0 0.00 0.00 0.00 96 1012.7
20260510112529 51 146 0.0 0.0 0.00 0.00 0.00 96 1012.6
20260510112025 51 146 0.0 0.0 0.00 0.00 0.00 96 1012.6
20260510111524 51 146 0.0 0.0 0.00 0.00 0.00 96 1012.5
20260510111024 50 146 0.0 0.0 0.00 0.00 0.00 96 1012.4
20260510110522 50 146 0.0 0.0 0.00 0.00 0.00 96 1012.4
20260510110020 50 146 0.0 0.0 0.00 0.00 0.00 96 1012.4
20260510105520 50 146 0.0 0.0 0.00 0.00 0.00 96 1012.1
20260510105020 50 146 0.0 0.0 0.00 0.00 0.00 96 1012.1
20260510104518 50 146 0.0 0.0 0.00 0.00 0.00 96 1012.1
20260510104018 50 146 0.0 0.0 0.00 0.00 0.00 96 1012.0
20260510103518 49 146 0.0 0.0 0.00 0.00 0.00 96 1011.9
20260510103017 49 146 0.0 0.0 0.00 0.00 0.00 96 1011.9
20260510102517 49 146 0.0 0.0 0.00 0.00 0.00 96 1011.9
20260510102016 50 146 0.0 0.0 0.00 0.00 0.00 96 1011.8
20260510101515 49 146 0.0 0.0 0.00 0.00 0.00 95 1011.8
20260510101015 50 146 0.0 0.0 0.00 0.00 0.00 96 1011.9
20260510100516 50 146 0.0 0.0 0.00 0.00 0.00 96 1012.0
20260510100014 50 146 0.0 0.0 0.00 0.00 0.00 95 1011.9
20260510095519 50 146 0.0 0.0 0.00 0.00 0.00 95 1011.7
20260510095014 50 146 0.0 0.0 0.00 0.00 0.00 95 1011.5
20260510094529 50 146 0.0 0.0 0.00 0.00 0.00 96 1011.4
20260510094012 50 146 0.0 0.0 0.00 0.00 0.00 96 1011.4
20260510093510 50 146 0.0 0.0 0.00 0.00 0.00 95 1011.4
20260510093011 50 146 0.0 0.0 0.00 0.00 0.00 95 1011.4
20260510092515 50 146 0.0 0.0 0.00 0.00 0.00 96 1011.3
20260510092009 50 146 0.0 0.0 0.00 0.00 0.00 95 1011.3
20260510091510 51 146 0.0 0.0 0.00 0.00 0.00 95 1011.2
20260510091009 50 146 0.0 0.0 0.00 0.00 0.00 95 1011.2
20260510090508 51 146 0.0 0.0 0.00 0.00 0.00 96 1011.2
20260510090008 50 146 0.0 0.0 0.00 0.00 0.00 95 1011.2
20260510085506 50 146 0.0 0.0 0.00 0.00 0.00 95 1011.1
20260510085007 50 146 0.0 0.0 0.00 0.00 0.00 95 1011.1
20260510084514 50 146 0.0 0.0 0.00 0.00 0.00 95 1011.0
20260510084005 50 146 0.0 0.0 0.00 0.00 0.00 95 1011.0
20260510083506 50 146 0.0 0.0 0.00 0.00 0.00 95 1010.8
20260510083004 50 146 0.0 0.0 0.00 0.00 0.00 95 1010.8
20260510082504 50 146 0.0 0.0 0.00 0.00 0.00 95 1010.8
20260510082008 51 146 0.0 0.0 0.00 0.00 0.00 95 1010.8
20260510081505 51 146 0.0 0.0 0.00 0.00 0.00 95 1010.7
20260510081004 51 146 0.0 0.0 0.00 0.00 0.00 95 1010.6
20260510080504 51 146 0.0 0.0 0.00 0.00 0.00 96 1010.7
20260510080015 51 146 0.0 0.0 0.00 0.00 0.00 95 1010.7
20260510075502 51 146 0.0 0.0 0.00 0.00 0.00 95 1010.6
20260510075005 51 146 0.0 0.0 0.00 0.00 0.00 95 1010.7
20260510074502 51 146 0.0 0.0 0.00 0.00 0.00 95 1010.6
20260510074002 51 146 0.0 0.0 0.00 0.00 0.00 95 1010.5
20260510073501 51 146 0.0 0.0 0.00 0.00 0.00 95 1010.5
20260510073003 51 146 0.0 0.0 0.00 0.00 0.00 95 1010.5
20260510072600 51 146 0.0 0.0 0.00 0.00 0.00 95 1010.5
20260510072100 51 146 0.0 0.0 0.00 0.00 0.00 95 1010.6
20260510071600 51 146 0.0 0.0 0.00 0.00 0.00 95 1010.6
20260510071058 51 146 0.0 0.0 0.00 0.00 0.00 95 1010.5
20260510070558 51 146 0.0 0.0 0.00 0.00 0.00 95 1010.5
20260510070058 51 146 0.0 0.0 0.00 0.00 0.00 95 1010.5
20260510065557 51 146 0.0 0.0 0.00 0.00 0.00 95 1010.5
20260510065056 51 146 0.0 0.0 0.00 0.00 0.00 95 1010.6
20260510064604 51 146 0.0 0.0 0.00 0.00 0.00 95 1010.8
20260510064056 51 146 0.0 0.0 0.00 0.00 0.00 94 1010.7
20260510063556 51 146 0.0 0.0 0.00 0.00 0.00 94 1010.7
20260510063056 52 146 0.0 0.0 0.00 0.00 0.00 95 1010.7
20260510062557 52 146 0.0 0.0 0.00 0.00 0.00 94 1010.7
20260510062055 52 146 0.0 0.0 0.00 0.00 0.00 94 1010.9
20260510061559 52 146 0.0 0.0 0.00 0.00 0.00 94 1010.8
20260510061055 52 146 0.0 0.0 0.00 0.00 0.00 94 1010.8
20260510060556 52 146 0.0 0.0 0.00 0.00 0.00 94 1010.8
20260510060056 52 146 0.0 0.0 0.00 0.00 0.00 94 1010.7
20260510055557 52 146 0.0 0.0 0.00 0.00 0.00 94 1010.8
20260510055054 52 146 0.0 0.0 0.00 0.00 0.00 94 1010.7
20260510054554 52 146 0.0 0.0 0.00 0.00 0.00 94 1010.6
20260510054053 52 146 0.0 0.0 0.00 0.00 0.00 94 1010.8
20260510053553 52 146 0.0 0.0 0.00 0.00 0.00 94 1010.9
20260510053054 52 146 0.0 0.0 0.00 0.00 0.00 94 1010.8
20260510052556 52 146 0.0 0.0 0.00 0.00 0.00 94 1010.8
20260510052052 52 146 0.0 0.0 0.00 0.00 0.00 94 1010.7
20260510051601 52 146 0.0 0.0 0.00 0.00 0.00 94 1010.7
20260510051051 52 146 0.0 0.0 0.00 0.00 0.00 94 1010.7
20260510050555 52 146 0.0 0.0 0.00 0.00 0.00 94 1010.9
20260510050055 52 146 0.0 0.0 0.00 0.00 0.00 94 1011.1
20260510045549 52 146 0.0 0.0 0.00 0.00 0.00 94 1011.1
20260510045049 52 146 0.0 0.0 0.00 0.00 0.00 94 1010.9
20260510044600 52 146 0.0 0.0 0.00 0.00 0.00 93 1010.9
20260510044049 52 146 0.0 0.0 0.00 0.00 0.00 93 1010.9
20260510043548 52 146 0.0 0.0 0.00 0.00 0.00 93 1011.0
20260510043049 52 146 0.0 0.0 0.00 0.00 0.00 93 1010.9
20260510042551 52 146 0.0 0.0 0.00 0.00 0.00 93 1011.0
20260510042046 52 146 0.0 0.0 0.00 0.00 0.00 93 1011.0
20260510041546 53 146 0.0 0.0 0.00 0.00 0.00 93 1011.0
20260510041046 53 146 0.0 0.0 0.00 0.00 0.00 92 1010.9
20260510040545 53 146 0.0 0.0 0.00 0.00 0.00 92 1010.8
20260510040047 53 146 0.0 0.0 0.00 0.00 0.00 92 1010.9
20260510035542 53 146 0.0 0.0 0.00 0.00 0.00 92 1011.1
20260510035044 53 146 0.0 0.0 0.00 0.00 0.00 92 1010.9
20260510034543 53 146 0.0 0.0 0.00 0.00 0.00 91 1011.0
20260510034042 54 146 0.0 0.0 0.00 0.00 0.00 91 1010.9
20260510033541 54 146 0.0 0.0 0.00 0.00 0.00 91 1010.8
20260510033041 54 146 0.0 0.0 0.00 0.00 0.00 91 1010.8
20260510032543 54 146 0.0 0.0 0.00 0.00 0.00 91 1010.8
20260510032041 54 146 0.0 0.0 0.00 0.00 0.00 90 1010.8
20260510031541 54 146 0.0 0.0 0.00 0.00 0.00 90 1010.8
20260510031040 54 146 0.0 0.0 0.00 0.00 0.00 90 1010.7
20260510030539 54 146 0.0 0.0 0.00 0.00 0.00 90 1010.7
20260510030050 55 146 0.0 0.0 0.00 0.00 0.00 89 1010.6
20260510025538 55 146 0.0 0.0 0.00 0.00 0.00 89 1010.6
20260510025038 55 146 0.0 0.0 0.00 0.00 0.00 89 1010.4
20260510024538 55 146 0.0 0.0 0.00 0.00 0.00 89 1010.5
20260510024036 55 146 0.0 0.0 0.00 0.00 0.00 88 1010.4
20260510023536 56 146 0.0 0.0 0.00 0.00 0.00 88 1010.4
20260510023139 56 146 0.0 0.0 0.00 0.00 0.00 88 1010.3
20260510022540 56 146 0.0 0.0 0.00 0.00 0.00 87 1010.2
20260510022034 56 146 0.0 0.0 0.00 0.00 0.00 89 1010.1
20260510021535 57 146 0.0 0.0 0.00 0.00 0.00 86 1010.0
20260510021034 57 146 0.0 0.0 0.00 0.00 0.00 85 1009.9
20260510020535 57 146 0.0 0.0 0.00 0.00 0.00 85 1009.8
20260510020033 57 146 0.0 0.0 0.00 0.00 0.00 85 1009.8
20260510015533 57 146 0.0 0.0 0.00 0.00 0.00 84 1009.7
20260510015132 58 146 0.0 0.0 0.00 0.00 0.00 84 1009.8
20260510014535 58 146 0.0 0.0 0.00 0.00 0.00 84 1009.6
20260510014032 58 146 0.0 0.0 0.00 0.00 0.00 84 1009.6
20260510013533 58 146 0.0 0.0 0.00 0.00 0.00 84 1009.4
20260510013033 58 146 0.0 0.0 0.00 0.00 0.00 83 1009.3
20260510012534 58 146 0.0 0.0 0.00 0.00 0.00 82 1009.2
20260510012032 59 146 0.0 0.0 0.00 0.00 0.00 82 1009.2
20260510011532 59 146 0.0 0.0 0.00 0.00 0.00 82 1009.2
20260510011031 59 146 0.0 0.0 0.00 0.00 0.00 81 1009.0
20260510010531 60 146 0.0 0.0 0.00 0.00 0.00 80 1009.0
20260510010031 60 146 0.0 0.0 0.00 0.00 0.00 80 1008.9
20260510005531 60 146 0.0 0.0 0.00 0.00 0.00 80 1008.8
20260510005033 60 146 0.0 0.0 0.00 0.00 0.00 79 1008.7
20260510004530 61 146 0.0 0.0 0.00 0.00 0.00 78 1008.8
20260510004030 61 146 0.0 0.0 0.00 0.00 0.00 77 1008.6
20260510003531 62 146 0.0 0.0 0.00 0.00 0.00 76 1008.6
20260510003037 63 146 0.0 0.0 0.00 0.00 0.00 75 1008.5
20260510002530 63 146 0.0 0.0 0.00 0.00 0.00 74 1008.5
20260510002030 64 146 0.0 0.0 0.00 0.00 0.00 72 1008.4
20260510001530 65 146 0.0 0.0 0.00 0.00 0.00 68 1008.2
20260510001030 67 146 0.0 0.0 0.00 0.00 0.00 65 1008.2
20260510000530 67 146 0.0 5.0 0.00 0.00 0.00 63 1008.2
20260510000030 68 157 0.0 7.0 0.00 0.00 0.00 62 1008.1
20260509235529 68 150 2.0 7.0 0.00 0.00 0.00 61 1008.1
20260509235029 69 131 1.0 4.0 0.00 0.00 0.00 61 1008.1
20260509234537 69 168 0.0 1.0 0.00 0.00 0.00 61 1008.0
20260509234028 70 167 0.0 2.0 0.00 0.00 0.00 60 1008.0
20260509233528 70 158 0.0 8.0 0.00 0.00 0.00 59 1008.0
20260509233032 70 223 0.0 8.0 0.00 0.00 0.00 58 1008.0
20260509232529 71 275 0.0 7.0 0.00 0.00 0.00 58 1008.0
20260509232029 71 148 0.0 5.0 0.00 0.00 0.00 57 1008.0
20260509231532 72 178 0.0 5.0 0.00 0.00 0.00 57 1008.1
20260509231028 72 148 0.0 1.0 0.00 0.00 0.00 56 1008.0
20260509230528 72 196 0.0 3.0 0.00 0.00 0.00 57 1007.9
20260509230028 72 251 0.0 3.0 0.00 0.00 0.00 56 1007.9
20260509225528 72 316 0.0 2.0 0.00 0.00 0.00 56 1008.0
20260509225027 72 169 0.0 3.0 0.00 0.00 0.00 58 1007.9
20260509224527 72 211 0.0 3.0 0.00 0.00 0.00 55 1008.0
20260509224027 72 135 0.0 3.0 0.00 0.00 0.00 57 1007.9
20260509223526 71 134 0.0 3.0 0.00 0.00 0.00 57 1007.9
20260509223030 71 104 0.0 0.0 0.00 0.00 0.00 56 1007.9
20260509222526 71 103 0.0 1.0 0.00 0.00 0.00 58 1007.9
20260509222026 71 103 0.0 4.0 0.00 0.00 0.00 58 1007.8
20260509221526 72 179 0.0 9.0 0.00 0.00 0.00 56 1007.8
20260509221026 72 144 1.0 9.0 0.00 0.00 0.00 57 1007.8
20260509220528 72 225 0.0 4.0 0.00 0.00 0.00 56 1007.9
20260509220028 72 212 0.0 4.0 0.00 0.00 0.00 55 1007.9
20260509215523 73 244 1.0 7.0 0.00 0.00 0.00 54 1007.9
20260509215026 73 192 0.0 8.0 0.00 0.00 0.00 57 1008.1
20260509214522 73 153 1.0 8.0 0.00 0.00 0.00 55 1008.1
20260509214022 73 251 0.0 4.0 0.00 0.00 0.00 57 1008.1
20260509213522 72 233 1.0 5.0 0.00 0.00 0.00 55 1008.2
20260509213022 72 254 2.0 9.0 0.00 0.00 0.00 55 1008.2
20260509212521 72 197 0.0 9.0 0.00 0.00 0.00 55 1008.2
20260509212021 72 183 0.0 5.0 0.00 0.00 0.00 56 1008.3
20260509211521 72 164 0.0 5.0 0.00 0.00 0.00 55 1008.2
20260509211021 72 121 0.0 9.0 0.00 0.00 0.00 59 1008.2
20260509210525 72 159 0.0 9.0 0.00 0.00 0.00 58 1008.2
20260509210022 72 237 0.0 6.0 0.00 0.00 0.00 57 1008.2
20260509205520 73 94 0.0 5.0 0.00 0.00 0.00 56 1008.1
20260509205019 73 284 0.0 5.0 0.00 0.00 0.00 57 1008.0
20260509204520 72 138 0.0 4.0 0.00 0.00 0.00 63 1008.1
20260509204020 72 170 0.0 4.0 0.00 0.00 0.00 60 1008.0
20260509203517 72 219 0.0 6.0 0.00 0.00 0.00 57 1008.2
20260509203022 72 315 1.0 6.0 0.00 0.00 0.00 57 1008.2
20260509202516 72 214 0.0 5.0 0.00 0.00 0.00 59 1008.2
20260509202017 70 304 0.0 4.0 0.00 0.00 0.00 61 1008.3
20260509201515 70 198 0.0 7.0 0.00 0.00 0.00 59 1008.3
20260509201020 70 304 0.0 7.0 0.00 0.00 0.00 60 1008.2
20260509200516 70 213 0.0 5.0 0.00 0.00 0.00 59 1008.2
20260509200015 71 303 0.0 2.0 0.00 0.00 0.00 60 1008.1
20260509195515 71 179 0.0 3.0 0.00 0.00 0.00 60 1008.3
20260509195014 71 271 0.0 4.0 0.00 0.00 0.00 60 1008.1
20260509194517 72 307 0.0 8.0 0.00 0.00 0.00 57 1008.2
20260509194015 72 146 1.0 10.0 0.00 0.00 0.00 61 1008.4
20260509193515 72 300 1.0 11.0 0.00 0.00 0.00 59 1008.4
20260509193014 72 311 4.0 11.0 0.00 0.00 0.00 59 1008.4